Location: Caltech
(34.1382°N, 118.1253°W)
Time: 20:26:15
(UTC-08:00)

Tiros 1 despin weight - All Passes

Search period start: 10 February 2016 00:00
Search period end: 20 February 2016 00:00
Orbit: 597 x 645 km, 48.2° (Epoch: 09 February)

Date Brightness Start Highest point End Pass type
(mag) Time Alt. Az. Time Alt. Az. Time Alt. Az.
10 Feb - 15:42:16 10° SW 15:46:40 57° SE 15:51:02 10° ENE daylight
10 Feb - 17:24:37 10° W 17:28:28 28° NNW 17:32:19 10° NE daylight
10 Feb - 19:09:02 10° NW 19:11:14 13° N 19:13:26 10° NNE visible
10 Feb - 20:51:23 10° NNW 20:54:17 17° NNE 20:57:12 10° ENE visible
10 Feb - 22:32:17 10° NW 22:36:39 53° NE 22:41:01 10° ESE night (unlit)
11 Feb - 00:14:29 10° W 00:18:00 23° SW 00:21:33 10° S night (unlit)
11 Feb - 14:19:56 10° S 14:22:54 17° SE 14:25:50 10° E daylight
11 Feb - 15:59:39 10° WSW 16:04:07 69° NW 16:08:33 10° NE daylight
11 Feb - 17:43:09 10° WNW 17:46:20 19° NNW 17:49:31 10° NNE daylight
11 Feb - 19:27:15 10° NNW 19:29:19 13° N 19:31:25 10° NNE visible
11 Feb - 21:08:36 10° NNW 21:12:12 24° NNE 21:15:48 10° ENE visible
11 Feb - 22:49:43 10° NW 22:54:09 76° SW 22:58:37 10° SE night (unlit)
12 Feb - 14:35:58 10° SSW 14:40:08 37° SE 14:44:16 10° ENE daylight
12 Feb - 16:17:35 10° W 16:21:44 36° NNW 16:25:52 10° NE daylight
12 Feb - 18:01:50 10° NW 18:04:20 15° N 18:06:49 10° NNE visible
12 Feb - 19:44:52 10° NNW 19:47:24 15° N 19:49:56 10° NE visible
12 Feb - 21:25:48 10° NW 21:29:58 38° NNE 21:34:07 10° E night (unlit)
12 Feb - 23:07:29 10° WNW 23:11:31 34° SW 23:15:34 10° SSE night (unlit)
13 Feb - 13:15:08 10° SE 13:16:27 11° SE 13:17:46 10° ESE daylight
13 Feb - 14:53:00 10° SW 14:57:30 82° SE 15:01:59 10° NE daylight
13 Feb - 16:35:56 10° WNW 16:39:30 23° NNW 16:43:04 10° NNE daylight
13 Feb - 18:20:20 10° NNW 18:22:24 13° N 18:24:28 10° NNE visible
13 Feb - 20:02:08 10° NNW 20:05:23 19° NNE 20:08:37 10° ENE visible
13 Feb - 21:43:07 10° NW 21:47:33 74° NE 21:52:00 10° ESE night (unlit)
13 Feb - 23:26:04 10° W 23:28:44 16° SW 23:31:25 10° SSW night (unlit)
14 Feb - 13:29:54 10° S 13:33:37 25° SE 13:37:19 10° ENE daylight
14 Feb - 15:10:39 10° WSW 15:15:01 50° NNW 15:19:22 10° NE daylight
14 Feb - 16:54:33 10° NW 16:57:26 16° NNW 17:00:17 10° NNE daylight
14 Feb - 18:38:14 10° NNW 18:40:29 14° N 18:42:44 10° NE visible
14 Feb - 20:19:19 10° NW 20:23:13 29° NNE 20:27:06 10° E visible
14 Feb - 22:00:41 10° WNW 22:04:59 52° SW 22:09:18 10° SSE night (unlit)
15 Feb - 13:46:29 10° SW 13:50:55 55° SE 13:55:18 10° ENE daylight
15 Feb - 15:28:47 10° W 15:32:42 29° NNW 15:36:36 10° NE daylight
15 Feb - 17:13:12 10° NW 17:15:28 14° N 17:17:43 10° NNE daylight
15 Feb - 18:55:39 10° NNW 18:58:31 17° NNE 19:01:23 10° NE visible
15 Feb - 20:36:34 10° NW 20:40:54 51° NNE 20:45:13 10° ESE visible
15 Feb - 22:18:43 10° W 22:22:16 24° SW 22:25:49 10° S night (unlit)
16 Feb - 12:24:12 10° S 12:27:08 17° SE 12:30:03 10° E daylight
16 Feb - 14:03:50 10° WSW 14:08:21 71° NW 14:12:50 10° NE daylight
16 Feb - 15:47:17 10° WNW 15:50:33 19° NNW 15:53:48 10° NNE daylight
16 Feb - 17:31:27 10° NNW 17:33:32 13° N 17:35:38 10° NNE daylight
16 Feb - 19:12:51 10° NNW 19:16:26 23° NNE 19:20:00 10° ENE visible
16 Feb - 20:53:59 10° NW 20:58:25 79° SW 21:02:50 10° SE visible
16 Feb - 22:38:51 10° WSW 22:39:24 10° SW 22:39:58 10° SW night (unlit)
17 Feb - 12:40:10 10° SSW 12:44:21 37° SE 12:48:30 10° ENE daylight
17 Feb - 14:21:43 10° W 14:25:57 38° NNW 14:30:08 10° NE daylight
17 Feb - 16:05:57 10° NW 16:08:31 15° N 16:11:05 10° NNE daylight
17 Feb - 17:49:04 10° NNW 17:51:36 15° N 17:54:07 10° NE daylight
17 Feb - 19:30:03 10° NW 19:34:11 37° NNE 19:38:18 10° E visible
17 Feb - 21:11:42 10° WNW 21:15:45 35° SW 21:19:48 10° SSE visible
18 Feb - 11:19:29 10° SE 11:20:40 11° SE 11:21:51 10° ESE daylight
18 Feb - 12:57:09 10° SW 13:01:43 80° SE 13:06:13 10° NE daylight
18 Feb - 14:40:03 10° WNW 14:43:42 24° NNW 14:47:20 10° NNE daylight
18 Feb - 16:24:27 10° NNW 16:26:35 13° N 16:28:42 10° NNE daylight
18 Feb - 18:06:21 10° NNW 18:09:35 19° NNE 18:12:47 10° ENE visible
18 Feb - 19:47:21 10° NW 19:51:47 71° NE 19:56:11 10° ESE visible
18 Feb - 21:30:13 10° W 21:32:57 16° SW 21:35:42 10° SSW visible
19 Feb - 11:34:05 10° S 11:37:49 25° SE 11:41:31 10° ENE daylight
19 Feb - 13:14:46 10° WSW 13:19:13 52° NNW 13:23:37 10° NE daylight
19 Feb - 14:58:38 10° WNW 15:01:36 17° NNW 15:04:32 10° NNE daylight
19 Feb - 16:42:23 10° NNW 16:44:40 14° N 16:46:55 10° NE daylight
19 Feb - 18:23:32 10° NW 18:27:25 29° NNE 18:31:16 10° E visible
19 Feb - 20:04:53 10° WNW 20:09:12 54° SW 20:13:30 10° SE visible
